Change the Weather History Date:

Wednesday, May 15, 2013

  Actual Average (KBLU) Record (KBLU)
Temperature  
Mean Temperature 62 °F -  
Max Temperature 69 °F 61 °F 79 °F (2008)
Min Temperature 55 °F 44 °F 26 °F (2011)
Degree Days  
Heating Degree Days 3    
Growing Degree Days 12 (Base 50)    
Moisture  
Dew Point 45 °F    
Average Humidity 50    
Maximum Humidity 72    
Minimum Humidity 33    
Precipitation  
Precipitation 0.00 in - - ()
Sea Level Pressure  
Sea Level Pressure 30.03 in    
Wind  
Wind Speed 5 mph (SSE)    
Max Wind Speed 9 mph    
Max Gust Speed -    
Visibility 10 miles    
Events      
Averages and records for this station are not official NWS values.
T = Trace of Precipitation, MM = Missing Value Source: NWS Daily Summary

Daily Weather History Graph

Daily Weather History Graph

Search for Another Location

Airport or City:

Trip Planner

Search our weather history database for the weather conditions in past years. The results will help you decide how hot, cold, wet, or windy it might be!

Date:

Astronomy

May. 15, 2013 Rise Set
Actual Time 5:50 AM PDT 8:10 PM PDT
Civil Twilight 5:20 AM PDT 8:41 PM PDT
Nautical Twilight 4:42 AM PDT 9:18 PM PDT
Astronomical Twilight 4:01 AM PDT 9:59 PM PDT
Moon 10:30 AM PDT (5/15) 12:00 AM PDT (5/15)
Length of Visible Light 15h 21m
Length of Day
14h 20m
Waxing Crescent, 28% of the Moon is Illuminated
May 15
Waxing Crescent
May 17
First Quarter
May 24
Full
May 31
Last Quarter
Jun 8
New

Hourly Weather History & Observations

Time (PDT) Temp. Dew Point Humidity Pressure Visibility Wind Dir Wind Speed Gust Speed Precip Events Conditions
12:00 AM 66.2 °F 50.0 °F 56% 30.02 in 10.0 mi Calm Calm - N/A   Clear
12:20 AM 64.4 °F 50.0 °F 59% 30.02 in 10.0 mi ESE 5.8 mph - N/A   Clear
12:40 AM 66.2 °F 48.2 °F 52% 30.02 in 10.0 mi ESE 5.8 mph - N/A   Clear
1:00 AM 66.2 °F 48.2 °F 52% 30.02 in 10.0 mi ESE 5.8 mph - N/A   Clear
1:20 AM 66.2 °F 46.4 °F 49% 30.02 in 10.0 mi ESE 5.8 mph - N/A   Clear
1:40 AM 66.2 °F 46.4 °F 49% 30.01 in 10.0 mi East 6.9 mph - N/A   Clear
2:00 AM 66.2 °F 46.4 °F 49% 30.00 in 10.0 mi ESE 8.1 mph - N/A   Clear
2:20 AM 66.2 °F 46.4 °F 49% 30.00 in 10.0 mi ESE 8.1 mph - N/A   Clear
2:40 AM 66.2 °F 44.6 °F 46% 30.00 in 10.0 mi East 6.9 mph - N/A   Clear
3:00 AM 66.2 °F 44.6 °F 46% 30.00 in 10.0 mi East 8.1 mph - N/A   Clear
3:20 AM 66.2 °F 44.6 °F 46% 29.99 in 10.0 mi ESE 6.9 mph - N/A   Clear
3:40 AM 66.2 °F 44.6 °F 46% 29.98 in 10.0 mi East 8.1 mph - N/A   Clear
4:00 AM 62.6 °F 46.4 °F 55% 29.98 in 10.0 mi ESE 6.9 mph - N/A   Clear
4:20 AM 62.6 °F 46.4 °F 55% 29.99 in 10.0 mi ESE 5.8 mph - N/A   Clear
4:40 AM 66.2 °F 44.6 °F 46% 29.99 in 10.0 mi ESE 5.8 mph - N/A   Clear
5:00 AM 64.4 °F 44.6 °F 49% 29.99 in 10.0 mi SE 3.5 mph - N/A   Clear
5:20 AM 62.6 °F 46.4 °F 55% 29.99 in 10.0 mi SSE 4.6 mph - N/A   Clear
5:40 AM 60.8 °F 44.6 °F 55% 29.99 in 10.0 mi Calm Calm - N/A   Clear
6:00 AM 59.0 °F 46.4 °F 63% 30.00 in 10.0 mi Calm Calm - N/A   Clear
6:20 AM 57.2 °F 46.4 °F 67% 30.00 in 10.0 mi SE 3.5 mph - N/A   Clear
6:40 AM 55.4 °F 46.4 °F 72% 30.01 in 10.0 mi SE 3.5 mph - N/A   Clear
7:00 AM 57.2 °F 46.4 °F 67% 30.01 in 10.0 mi SSE 5.8 mph - N/A   Clear
7:20 AM 57.2 °F 46.4 °F 67% 30.01 in 10.0 mi SE 5.8 mph - N/A   Clear
7:50 AM 59.0 °F 48.2 °F 67% 30.02 in 10.0 mi SSE 5.8 mph - N/A   Unknown
8:15 AM 60.8 °F 48.2 °F 63% 30.02 in 10.0 mi SSE 4.6 mph - N/A   Clear
8:35 AM 62.6 °F 48.2 °F 59% 30.03 in 10.0 mi SSE 6.9 mph - N/A   Clear
8:55 AM 62.6 °F 46.4 °F 55% 30.03 in 10.0 mi SE 8.1 mph - N/A   Clear
9:15 AM 62.6 °F 42.8 °F 48% 30.04 in 10.0 mi SSE 8.1 mph - N/A   Clear
9:30 AM 62.6 °F 41.0 °F 45% 30.04 in 9.0 mi SSE 9.2 mph - N/A   Clear
9:50 AM 62.6 °F 41.0 °F 45% 30.04 in 10.0 mi SE 6.9 mph - N/A   Clear
10:15 AM 66.2 °F 42.8 °F 43% 30.04 in 9.0 mi SSE 8.1 mph - N/A   Clear
10:30 AM 66.2 °F 42.8 °F 43% 30.05 in 10.0 mi South 3.5 mph - N/A   Clear
10:55 AM 66.2 °F 41.0 °F 40% 30.05 in 10.0 mi SE 8.1 mph - N/A   Clear
11:15 AM 66.2 °F 41.0 °F 40% 30.05 in 10.0 mi SSE 5.8 mph - N/A   Clear
11:30 AM 68.0 °F 41.0 °F 37% 30.05 in 10.0 mi South 4.6 mph - N/A   Clear
11:55 AM 68.0 °F 41.0 °F 37% 30.06 in 10.0 mi South 3.5 mph - N/A   Partly Cloudy
12:10 PM 68.0 °F 39.2 °F 35% 30.06 in 10.0 mi SSE 8.1 mph - N/A   Partly Cloudy
12:30 PM 68.0 °F 39.2 °F 35% 30.05 in 10.0 mi South 4.6 mph - N/A   Partly Cloudy
12:50 PM 69.8 °F 41.0 °F 35% 30.05 in 10.0 mi South 4.6 mph - N/A   Scattered Clouds
1:10 PM 68.0 °F 42.8 °F 40% 30.05 in 10.0 mi South 5.8 mph - N/A   Scattered Clouds
1:35 PM 68.0 °F 41.0 °F 37% 30.06 in 10.0 mi South 3.5 mph - N/A   Scattered Clouds
1:55 PM 69.8 °F 39.2 °F 33% 30.06 in 10.0 mi South 4.6 mph - N/A   Partly Cloudy
2:35 PM 68.0 °F 37.4 °F 33% 30.06 in 10.0 mi South 3.5 mph - N/A   Scattered Clouds
2:55 PM 68.0 °F 41.0 °F 37% 30.05 in 10.0 mi South 3.5 mph - N/A   Scattered Clouds
3:15 PM 68.0 °F 42.8 °F 40% 30.05 in 10.0 mi South 4.6 mph - N/A   Clear
3:35 PM 68.0 °F 44.6 °F 43% 30.05 in 10.0 mi SSW 4.6 mph - N/A   Clear
3:55 PM 69.8 °F 44.6 °F 40% 30.04 in 10.0 mi South 3.5 mph - N/A   Clear
4:15 PM 69.8 °F 46.4 °F 43% 30.04 in 10.0 mi Calm Calm - N/A   Clear
4:35 PM 68.0 °F 44.6 °F 43% 30.04 in 10.0 mi Calm Calm - N/A   Clear
4:50 PM 68.0 °F 44.6 °F 43% 30.04 in 10.0 mi South 3.5 mph - N/A   Clear
5:15 PM 68.0 °F 44.6 °F 43% 30.03 in 10.0 mi SSW 3.5 mph - N/A   Clear
5:35 PM 68.0 °F 44.6 °F 43% 30.03 in 10.0 mi SSW 3.5 mph - N/A   Clear
5:55 PM 68.0 °F 46.4 °F 46% 30.03 in 10.0 mi SW 5.8 mph - N/A   Clear
6:15 PM 66.2 °F 46.4 °F 49% 30.03 in 9.0 mi SW 4.6 mph - N/A   Clear
6:35 PM 66.2 °F 46.4 °F 49% 30.03 in 10.0 mi SW 3.5 mph - N/A   Clear
6:50 PM 66.2 °F 44.6 °F 46% 30.03 in 10.0 mi Calm Calm - N/A   Clear
7:15 PM 64.4 °F 46.4 °F 52% 30.03 in 10.0 mi Calm Calm - N/A   Clear
7:35 PM 64.4 °F 46.4 °F 52% 30.03 in 10.0 mi Calm Calm - N/A   Clear
7:55 PM 62.6 °F 46.4 °F 55% 30.03 in 10.0 mi Calm Calm - N/A   Clear
8:15 PM 60.8 °F 46.4 °F 59% 30.03 in 9.0 mi Calm Calm - N/A   Clear
8:35 PM 60.8 °F 46.4 °F 59% 30.03 in 10.0 mi Calm Calm - N/A   Clear
8:55 PM 60.8 °F 44.6 °F 55% 30.03 in 10.0 mi Calm Calm - N/A   Clear
9:15 PM 60.8 °F 44.6 °F 55% 30.03 in 10.0 mi SE 3.5 mph - N/A   Clear
9:35 PM 60.8 °F 44.6 °F 55% 30.03 in 10.0 mi ESE 4.6 mph - N/A   Clear
9:55 PM 59.0 °F 44.6 °F 59% 30.03 in 10.0 mi Calm Calm - N/A   Clear
10:15 PM 59.0 °F 44.6 °F 59% 30.03 in 10.0 mi ESE 4.6 mph - N/A   Clear
10:30 PM 59.0 °F 44.6 °F 59% 30.03 in 10.0 mi ESE 6.9 mph - N/A   Clear
10:55 PM 59.0 °F 44.6 °F 59% 30.02 in 10.0 mi ESE 3.5 mph - N/A   Clear
11:15 PM 59.0 °F 44.6 °F 59% 30.02 in 10.0 mi ESE 5.8 mph - N/A   Clear
11:35 PM 60.8 °F 44.6 °F 55% 30.01 in 10.0 mi ESE 5.8 mph - N/A   Clear
11:55 PM 59.0 °F 44.6 °F 59% 30.01 in 10.0 mi ESE 5.8 mph - N/A   Clear